Christmas Island, Christmas Island

11:51 AM +07 on April 21, 2018 (GMT +0700)
Christmas Island

Weather History for YPXM - May, 2012

Change the Weather History Date:

Wednesday, May 2, 2012

  Actual Average Record
Temperature  
Mean Temperature 79 °F -  
Max Temperature 83 °F 79 °F 85 °F (2014)
Min Temperature 75 °F 73 °F 71 °F (2015)
Cooling Degree Days 14    
Growing Degree Days 29 (Base 50)    
Moisture  
Dew Point 75 °F    
Average Humidity 84    
Maximum Humidity 94    
Minimum Humidity 74    
Precipitation  
Precipitation 0.00 in - - ()
Sea Level Pressure  
Sea Level Pressure 29.89 in    
Wind  
Wind Speed 9 mph ()    
Max Wind Speed 13 mph    
Max Gust Speed -    
Visibility 6.2 miles    
Events      
Averages and records for this station are not official NWS values.
T = Trace of Precipitation, MM = Missing Value Source: Averaged Metar Reports

Daily Weather History Graph

Daily Weather History Graph

Search for Another Location

Airport or City:

Astronomy

May. 02, 2012 Rise Set
Actual Time 6:02 AM +07 5:45 PM +07
Civil Twilight 5:40 AM +07 6:07 PM +07
Nautical Twilight 5:15 AM +07 6:32 PM +07
Astronomical Twilight 4:50 AM +07 6:58 PM +07
Moon 2:26 PM +07 (5/2) 1:58 AM +07 (5/2)
Length of Visible Light 12h 27m
Length of Day
11h 43m
Waxing Gibbous, 79% of the Moon is Illuminated
May 2
Waxing Gibbous
May 6
Full
May 13
Last Quarter
May 21
New
May 29
First Quarter

Hourly Weather History & Observations

Time (+07) Temp. Heat Index Dew Point Humidity Pressure Visibility Wind Dir Wind Speed Gust Speed Precip Events Conditions
12:00 AM 78 °F - 75 °F 89% 29.87 in - East 6.9 mph - -   Overcast
12:00 AM 78.8 °F - 75.2 °F 89% 29.92 in 6.2 mi East 6.9 mph - N/A   Overcast
1:00 AM 78 °F - 76 °F 91% 29.86 in - ESE 6.9 mph - -  
1:00 AM 78.8 °F - 75.2 °F 89% 29.89 in 6.2 mi ESE 6.9 mph - N/A   Overcast
2:00 AM 78.8 °F - 75.2 °F 89% 29.89 in 6.2 mi East 10.4 mph - N/A   Mostly Cloudy
3:00 AM 78 °F - 76 °F 91% 29.84 in - East 9.2 mph - -   Overcast
3:00 AM 78.8 °F - 75.2 °F 89% 29.89 in 6.2 mi East 9.2 mph - N/A   Overcast
4:00 AM 78 °F - 75 °F 87% 29.83 in - ESE 8.1 mph - -  
4:00 AM 78.8 °F - 75.2 °F 89% 29.86 in 6.2 mi ESE 8.1 mph - N/A   Mostly Cloudy
5:00 AM 78.8 °F - 75.2 °F 89% 29.89 in 6.2 mi East 6.9 mph - N/A   Overcast
6:00 AM 78 °F - 75 °F 87% 29.85 in - East 9.2 mph - -   Overcast
6:00 AM 77.0 °F - 75.2 °F 94% 29.89 in 6.2 mi East 9.2 mph - N/A   Mostly Cloudy
7:00 AM 79 °F - 75 °F 83% 29.88 in - East 9.2 mph - -  
7:00 AM 78.8 °F - 75.2 °F 89% 29.92 in 6.2 mi East 9.2 mph - N/A   Mostly Cloudy
8:00 AM 78.8 °F - 75.2 °F 89% 29.92 in 6.2 mi ESE 10.4 mph - N/A   Mostly Cloudy
8:52 AM 80.6 °F 86.2 °F 75.2 °F 84% 29.95 in 6.2 mi East 10.4 mph - N/A   Scattered Clouds
9:00 AM 82 °F - 75 °F 74% 29.90 in - East 9.2 mph - -  
9:00 AM 82.4 °F 89.5 °F 75.2 °F 79% 29.95 in 6.2 mi East 9.2 mph - N/A   Scattered Clouds
9:23 AM 80.6 °F 86.2 °F 75.2 °F 84% 29.95 in 6.2 mi East 11.5 mph - N/A   Mostly Cloudy
10:00 AM 82 °F - 75 °F 75% 29.90 in - East 11.5 mph - -  
10:00 AM 82.4 °F 89.5 °F 75.2 °F 79% 29.95 in 6.2 mi East 11.5 mph - N/A   Mostly Cloudy
10:17 AM 80.6 °F 86.2 °F 75.2 °F 84% 29.95 in 6.2 mi ESE 11.5 mph - N/A   Scattered Clouds
10:18 AM 80.6 °F 86.2 °F 75.2 °F 84% 29.95 in 6.2 mi ESE 11.5 mph - N/A   Mostly Cloudy
11:00 AM 82.4 °F 90.9 °F 77.0 °F 84% 29.92 in 6.2 mi East 10.4 mph - N/A   Mostly Cloudy
11:06 AM 82.4 °F 89.5 °F 75.2 °F 79% 29.92 in 6.2 mi East 10.4 mph - N/A   Mostly Cloudy
11:14 AM 82.4 °F 89.5 °F 75.2 °F 79% 29.92 in 6.2 mi East 11.5 mph - N/A   Mostly Cloudy
11:25 AM 82.4 °F 89.5 °F 75.2 °F 79% 29.92 in 6.2 mi East 10.4 mph - N/A   Mostly Cloudy
11:29 AM 82.4 °F 89.5 °F 75.2 °F 79% 29.92 in 6.2 mi East 11.5 mph - N/A   Mostly Cloudy
12:00 PM 82 °F - 76 °F 76% 29.86 in - ESE 12.7 mph - -  
12:00 PM 82.4 °F 89.5 °F 75.2 °F 79% 29.89 in 6.2 mi ESE 12.7 mph - N/A   Mostly Cloudy
12:22 PM 82.4 °F 89.5 °F 75.2 °F 79% 29.89 in 6.2 mi ESE 11.5 mph - N/A   Scattered Clouds
12:50 PM 82.4 °F 90.9 °F 77.0 °F 84% 29.89 in 6.2 mi ESE 11.5 mph - N/A   Mostly Cloudy
1:00 PM 82 °F - 76 °F 78% 29.84 in - ESE 11.5 mph - -  
1:00 PM 82.4 °F 90.9 °F 77.0 °F 84% 29.89 in 6.2 mi ESE 11.5 mph - N/A   Mostly Cloudy
2:00 PM 80.6 °F 86.2 °F 75.2 °F 84% 29.86 in 6.2 mi ESE 9.2 mph - N/A   Mostly Cloudy
3:00 PM 82 °F - 75 °F 75% 29.81 in - East 9.2 mph - -  
3:00 PM 82.4 °F 89.5 °F 75.2 °F 79% 29.86 in 6.2 mi East 9.2 mph - N/A   Scattered Clouds
3:34 PM 80.6 °F 86.2 °F 75.2 °F 84% 29.83 in 6.2 mi East 9.2 mph - N/A   Mostly Cloudy
4:00 PM 80 °F - 76 °F 84% 29.80 in - ESE 10.4 mph - -  
4:00 PM 80.6 °F 86.2 °F 75.2 °F 84% 29.83 in 6.2 mi ESE 10.4 mph - N/A   Mostly Cloudy
4:15 PM 80.6 °F 86.2 °F 75.2 °F 84% 29.83 in 6.2 mi ESE 8.1 mph - N/A   Mostly Cloudy
6:00 PM 78 °F - 76 °F 93% 29.82 in - SE 9.2 mph - -   Overcast
7:00 PM 78 °F - 76 °F 90% 29.83 in - East 10.4 mph - -  
7:00 PM 78.8 °F - 75.2 °F 89% 29.86 in 6.2 mi East 10.4 mph - N/A   Mostly Cloudy
8:00 PM 78.8 °F - 77.0 °F 94% 29.89 in 6.2 mi ESE 9.2 mph - N/A   Mostly Cloudy
9:00 PM 78 °F - 73 °F 82% 29.87 in - ESE 10.4 mph - -   Overcast
9:00 PM 78.8 °F - 73.4 °F 83% 29.89 in 6.2 mi ESE 10.4 mph - N/A   Mostly Cloudy
10:00 PM 78 °F - 74 °F 86% 29.87 in - ESE 10.4 mph - -  
10:00 PM 78.8 °F - 75.2 °F 89% 29.92 in 6.2 mi ESE 10.4 mph - N/A   Scattered Clouds
10:34 PM 78.8 °F - 73.4 °F 83% 29.92 in 6.2 mi ESE 10.4 mph - N/A   Mostly Cloudy
10:54 PM 78.8 °F - 73.4 °F 83% 29.92 in 6.2 mi ESE 10.4 mph - N/A   Mostly Cloudy
11:00 PM 78.8 °F - 73.4 °F 83% 29.92 in 6.2 mi ESE 10.4 mph - N/A   Mostly Cloudy
11:10 PM 78.8 °F - 73.4 °F 83% 29.92 in 6.2 mi ESE 10.4 mph - N/A   Mostly Cloudy